Weather History for Brookings, SD

Change the Weather History Date:

Tuesday, October 9, 2012

  Actual Average Record
Temperature  
Mean Temperature 44 °F -  
Max Temperature 51 °F 59 °F 80 °F (1999)
Min Temperature 37 °F 37 °F 23 °F (2002)
Degree Days  
Heating Degree Days 21    
Moisture  
Dew Point 28 °F    
Average Humidity 55    
Maximum Humidity 76    
Minimum Humidity 42    
Precipitation  
Precipitation 0.00 in - - ()
Sea Level Pressure  
Sea Level Pressure 29.93 in    
Wind  
Wind Speed 12 mph (WNW)    
Max Wind Speed 26 mph    
Max Gust Speed 33 mph    
Visibility 10 miles    
Events      
Averages and records for this station are not official NWS values.
T = Trace of Precipitation, MM = Missing Value Source: NWS Daily Summary

Daily Weather History Graph

Daily Weather History Graph

Search for Another Location

Airport:

Trip Planner

Search our weather history database for the weather conditions in past years. The results will help you decide how hot, cold, wet, or windy it might be!

Date:

Astronomy

Oct. 09, 2012 Rise Set
Actual Time 7:35 AM CDT 6:52 PM CDT
Civil Twilight 7:06 AM CDT 7:21 PM CDT
Nautical Twilight 6:32 AM CDT 7:55 PM CDT
Astronomical Twilight 5:58 AM CDT 8:28 PM CDT
Moon 1:00 AM CDT (10/9) 3:32 PM CDT (10/9)
Length of Visible Light 12h 15m
Length of Day
11h 17m
Last Quarter, 36% of the Moon is Illuminated
Oct 9
Last Quarter
Oct 15
New
Oct 21
First Quarter
Oct 29
Full
Nov 6
Last Quarter

Hourly Weather History & Observations

Time (CDT) Temp. Windchill Dew Point Humidity Pressure Visibility Wind Dir Wind Speed Gust Speed Precip Events Conditions
12:15 AM 51.8 °F - 37.4 °F 58% 29.80 in 10.0 mi West 8.1 mph - N/A   Overcast
12:35 AM 51.8 °F - 37.4 °F 58% 29.80 in 10.0 mi West 5.8 mph - N/A   Overcast
12:55 AM 50.0 °F - 37.4 °F 62% 29.80 in 10.0 mi West 5.8 mph - N/A   Overcast
1:15 AM 48.2 °F - 37.4 °F 66% 29.80 in 10.0 mi West 6.9 mph - N/A   Mostly Cloudy
1:55 AM 46.4 °F 42.9 °F 37.4 °F 71% 29.79 in 10.0 mi WSW 6.9 mph - N/A   Overcast
2:15 AM 48.2 °F - 37.4 °F 66% 29.79 in 10.0 mi WSW 5.8 mph - N/A   Overcast
2:55 AM 46.4 °F 44.3 °F 37.4 °F 71% 29.79 in 10.0 mi WSW 4.6 mph - N/A   Overcast
3:15 AM 46.4 °F 44.3 °F 37.4 °F 71% 29.79 in 10.0 mi West 4.6 mph - N/A   Overcast
3:35 AM 48.2 °F - 37.4 °F 66% 29.79 in 10.0 mi West 5.8 mph - N/A   Overcast
3:55 AM 48.2 °F - 37.4 °F 66% 29.79 in 10.0 mi West 5.8 mph - N/A   Overcast
4:15 AM 48.2 °F - 37.4 °F 66% 29.80 in 10.0 mi WNW 9.2 mph - N/A   Overcast
4:35 AM 48.2 °F - 37.4 °F 66% 29.82 in 10.0 mi WNW 13.8 mph - N/A   Overcast
4:55 AM 46.4 °F 41.5 °F 37.4 °F 71% 29.83 in 10.0 mi NW 10.4 mph - N/A   Overcast
5:15 AM 44.6 °F 42.2 °F 37.4 °F 76% 29.83 in 10.0 mi NW 4.6 mph - N/A   Overcast
5:35 AM 44.6 °F 42.2 °F 37.4 °F 76% 29.83 in 10.0 mi WNW 4.6 mph - N/A   Mostly Cloudy
5:55 AM 44.6 °F 40.2 °F 37.4 °F 76% 29.84 in 10.0 mi NW 8.1 mph - N/A   Mostly Cloudy
6:15 AM 42.8 °F 38.0 °F 35.6 °F 76% 29.85 in 10.0 mi NW 8.1 mph - N/A   Scattered Clouds
6:55 AM 42.8 °F 38.0 °F 32.0 °F 66% 29.86 in 10.0 mi WNW 8.1 mph - N/A   Mostly Cloudy
7:15 AM 42.8 °F 36.6 °F 30.2 °F 61% 29.87 in 10.0 mi WNW 11.5 mph - N/A   Scattered Clouds
7:35 AM 42.8 °F 35.1 °F 30.2 °F 61% 29.87 in 10.0 mi WNW 16.1 mph 21.9 mph N/A   Mostly Cloudy
7:55 AM 42.8 °F 35.8 °F 28.4 °F 57% 29.87 in 10.0 mi WNW 13.8 mph 19.6 mph N/A   Mostly Cloudy
8:15 AM 42.8 °F 35.4 °F 28.4 °F 57% 29.87 in 10.0 mi WNW 15.0 mph 20.7 mph N/A   Mostly Cloudy
8:35 AM 42.8 °F 35.4 °F 28.4 °F 57% 29.88 in 10.0 mi WNW 15.0 mph 23.0 mph N/A   Mostly Cloudy
8:55 AM - - - N/A% - - North - - N/A   Unknown
9:15 AM 42.8 °F 34.0 °F 26.6 °F 53% 29.89 in 10.0 mi WNW 20.7 mph 26.5 mph N/A   Partly Cloudy
9:35 AM 44.6 °F 37.2 °F 26.6 °F 49% 29.89 in 10.0 mi WNW 17.3 mph 27.6 mph N/A   Clear
9:55 AM 44.6 °F 36.1 °F 24.8 °F 46% 29.89 in 10.0 mi WNW 21.9 mph 28.8 mph N/A   Clear
10:15 AM 44.6 °F 36.1 °F 24.8 °F 46% 29.90 in 10.0 mi WNW 21.9 mph 27.6 mph N/A   Clear
10:35 AM 44.6 °F 36.4 °F 24.8 °F 46% 29.90 in 10.0 mi WNW 20.7 mph 31.1 mph N/A   Scattered Clouds
10:55 AM 44.6 °F 35.7 °F 24.8 °F 46% 29.91 in 10.0 mi WNW 24.2 mph 31.1 mph N/A   Overcast
11:15 AM 42.8 °F 32.9 °F 24.8 °F 49% 29.91 in 10.0 mi WNW 26.5 mph 32.2 mph N/A   Overcast
11:35 AM 42.8 °F 33.5 °F 24.8 °F 49% 29.92 in 10.0 mi WNW 23.0 mph 32.2 mph N/A   Overcast
11:55 AM 42.8 °F 34.5 °F 24.8 °F 49% 29.92 in 10.0 mi WNW 18.4 mph 33.4 mph N/A   Overcast
12:15 PM 42.8 °F 32.9 °F 26.6 °F 53% 29.92 in 10.0 mi WNW 26.5 mph 31.1 mph N/A   Overcast
12:35 PM 42.8 °F 33.8 °F 26.6 °F 53% 29.93 in 10.0 mi WNW 21.9 mph 33.4 mph N/A   Overcast
12:55 PM 42.8 °F 33.5 °F 26.6 °F 53% 29.93 in 10.0 mi WNW 23.0 mph 31.1 mph N/A   Overcast
1:15 PM 42.8 °F 35.1 °F 26.6 °F 53% 29.93 in 10.0 mi WNW 16.1 mph 26.5 mph N/A   Overcast
1:35 PM 42.8 °F 33.3 °F 28.4 °F 57% 29.93 in 10.0 mi NW 24.2 mph 32.2 mph N/A   Overcast
1:55 PM 42.8 °F 33.3 °F 28.4 °F 57% 29.94 in 10.0 mi WNW 24.2 mph 31.1 mph N/A   Overcast
2:15 PM 42.8 °F 32.9 °F 28.4 °F 57% 29.94 in 10.0 mi NW 26.5 mph 31.1 mph N/A   Overcast
2:35 PM 42.8 °F 33.5 °F 28.4 °F 57% 29.94 in 10.0 mi NW 23.0 mph 28.8 mph N/A   Overcast
2:55 PM 42.8 °F 33.1 °F 28.4 °F 57% 29.95 in 10.0 mi NW 25.3 mph 29.9 mph N/A   Overcast
3:15 PM 42.8 °F 34.0 °F 26.6 °F 53% 29.97 in 10.0 mi NW 20.7 mph 28.8 mph N/A   Overcast
3:35 PM 42.8 °F 34.0 °F 26.6 °F 53% 29.97 in 10.0 mi NW 20.7 mph 26.5 mph N/A   Overcast
3:55 PM 42.8 °F 33.5 °F 26.6 °F 53% 29.98 in 10.0 mi NW 23.0 mph 31.1 mph N/A   Overcast
4:15 PM 44.6 °F 36.1 °F 26.6 °F 49% 29.98 in 10.0 mi WNW 21.9 mph 28.8 mph N/A   Overcast
4:35 PM 44.6 °F 36.4 °F 24.8 °F 46% 29.99 in 10.0 mi NNW 20.7 mph 27.6 mph N/A   Overcast
4:55 PM 44.6 °F 35.7 °F 24.8 °F 46% 29.99 in 10.0 mi WNW 24.2 mph 29.9 mph N/A   Mostly Cloudy
5:15 PM 44.6 °F 36.6 °F 23.0 °F 43% 30.00 in 10.0 mi NW 19.6 mph 26.5 mph N/A   Mostly Cloudy
5:35 PM 42.8 °F 35.1 °F 24.8 °F 49% 30.01 in 10.0 mi NW 16.1 mph 25.3 mph N/A   Mostly Cloudy
5:55 PM 42.8 °F 34.8 °F 23.0 °F 46% 30.02 in 10.0 mi NNW 17.3 mph 25.3 mph N/A   Overcast
6:15 PM 42.8 °F 33.5 °F 23.0 °F 46% 30.02 in 10.0 mi NW 23.0 mph 27.6 mph N/A   Overcast
6:35 PM 42.8 °F 34.8 °F 23.0 °F 46% 30.02 in 10.0 mi NW 17.3 mph 23.0 mph N/A   Overcast
6:55 PM 42.8 °F 34.0 °F 23.0 °F 46% 30.03 in 10.0 mi NW 20.7 mph 26.5 mph N/A   Overcast
7:15 PM 42.8 °F 34.8 °F 23.0 °F 46% 30.04 in 10.0 mi NW 17.3 mph 20.7 mph N/A   Overcast
7:35 PM 42.8 °F 35.8 °F 21.2 °F 42% 30.04 in 10.0 mi NW 13.8 mph 20.7 mph N/A   Overcast
7:55 PM 42.8 °F 36.6 °F 21.2 °F 42% 30.05 in 10.0 mi NW 11.5 mph - N/A   Overcast
8:15 PM 42.8 °F 36.2 °F 21.2 °F 42% 30.06 in 10.0 mi NW 12.7 mph 16.1 mph N/A   Overcast
8:35 PM 41.0 °F 35.2 °F 21.2 °F 45% 30.06 in 10.0 mi NW 9.2 mph - N/A   Overcast
8:55 PM 39.2 °F 33.6 °F 21.2 °F 49% 30.06 in 10.0 mi NW 8.1 mph - N/A   Overcast
9:15 PM 37.4 °F 32.1 °F 21.2 °F 52% 30.07 in 10.0 mi NW 6.9 mph - N/A   Overcast
9:35 PM 39.2 °F 35.0 °F 24.8 °F 56% 30.07 in 10.0 mi WNW 5.8 mph - N/A   Overcast
9:55 PM 39.2 °F 35.0 °F 23.0 °F 52% 30.08 in 10.0 mi WNW 5.8 mph - N/A   Overcast
10:15 PM 39.2 °F 35.9 °F 23.0 °F 52% 30.08 in 10.0 mi West 4.6 mph - N/A   Overcast
10:35 PM 39.2 °F 35.0 °F 23.0 °F 52% 30.08 in 10.0 mi West 5.8 mph - N/A   Overcast
10:55 PM 39.2 °F 35.0 °F 23.0 °F 52% 30.08 in 10.0 mi West 5.8 mph - N/A   Overcast
11:15 PM 39.2 °F 35.9 °F 23.0 °F 52% 30.08 in 10.0 mi West 4.6 mph - N/A   Overcast
11:35 PM 39.2 °F 35.9 °F 23.0 °F 52% 30.08 in 10.0 mi West 4.6 mph - N/A   Overcast
11:55 PM 39.2 °F 35.9 °F 24.8 °F 56% 30.08 in 10.0 mi West 4.6 mph - N/A   Overcast